AFR1150 LFPG-EKCH

Flight info

Callsign AFR1150
Flight time 1h 26m
Altitude 37000
Route NURMO DCT CMB DCT VEKIN DCT ADUTO DCT VICOT DCT EEL DCT TALSA P729 TUDLO
Aircraft A320/M-SDE3FGHIRWY/LB1

Departure

Time 2026-05-08 18:48
Airport Charles de Gaulle International Airport (LFPG)

Arrival

Time 2026-05-08 20:14
Airport Copenhagen Kastrup Airport (EKCH)
Time Latitude Longitude Altitude Speed Heading
2026-05-08 18:08 49.00653 2.58016 355 ft 0 kts 268°
2026-05-08 18:29 49.00653 2.58028 354 ft 3 kts 268°
2026-05-08 18:30 49.00654 2.58062 364 ft 3 kts 269°
2026-05-08 18:30 49.00653 2.58095 354 ft 3 kts 277°
2026-05-08 18:30 49.00649 2.58126 364 ft 3 kts 304°
2026-05-08 18:30 49.00638 2.58141 354 ft 1 kts 355°
2026-05-08 18:34 49.00679 2.58135 354 ft 11 kts 355°
2026-05-08 18:34 49.00770 2.58124 354 ft 14 kts 354°
2026-05-08 18:34 49.00872 2.58107 357 ft 15 kts 354°
2026-05-08 18:35 49.00983 2.58091 358 ft 17 kts 355°
2026-05-08 18:35 49.01104 2.58076 354 ft 18 kts 355°
2026-05-08 18:35 49.01227 2.58062 361 ft 18 kts 356°
2026-05-08 18:35 49.01353 2.58048 361 ft 19 kts 356°
2026-05-08 18:36 49.01487 2.58029 361 ft 20 kts 354°
2026-05-08 18:36 49.01629 2.58012 354 ft 21 kts 356°
2026-05-08 18:36 49.01778 2.57994 354 ft 22 kts 354°
2026-05-08 18:36 49.01906 2.57954 360 ft 18 kts 332°
2026-05-08 18:37 49.01988 2.57807 356 ft 18 kts 292°
2026-05-08 18:37 49.01994 2.57625 354 ft 16 kts 261°
2026-05-08 18:37 49.01987 2.57462 354 ft 14 kts 266°
2026-05-08 18:37 49.01980 2.57318 357 ft 13 kts 265°
2026-05-08 18:38 49.01973 2.57185 357 ft 14 kts 265°
2026-05-08 18:38 49.01964 2.57009 360 ft 19 kts 265°
2026-05-08 18:38 49.01952 2.56787 354 ft 22 kts 265°
2026-05-08 18:38 49.01939 2.56553 358 ft 23 kts 265°
2026-05-08 18:39 49.01926 2.56309 356 ft 24 kts 265°
2026-05-08 18:39 49.01912 2.56059 354 ft 25 kts 265°
2026-05-08 18:39 49.01898 2.55793 354 ft 26 kts 266°
2026-05-08 18:39 49.01884 2.55516 354 ft 27 kts 265°
2026-05-08 18:40 49.01869 2.55228 354 ft 28 kts 265°
2026-05-08 18:40 49.01854 2.54933 354 ft 27 kts 266°
2026-05-08 18:40 49.01838 2.54655 354 ft 26 kts 265°
2026-05-08 18:40 49.01824 2.54384 354 ft 24 kts 265°
2026-05-08 18:41 49.01810 2.54132 354 ft 24 kts 265°
2026-05-08 18:41 49.01797 2.53878 354 ft 24 kts 265°
2026-05-08 18:41 49.01783 2.53619 354 ft 24 kts 264°
2026-05-08 18:41 49.01767 2.53368 358 ft 21 kts 265°
2026-05-08 18:42 49.01756 2.53144 361 ft 21 kts 265°
2026-05-08 18:42 49.01746 2.52935 358 ft 19 kts 266°
2026-05-08 18:42 49.01735 2.52748 355 ft 17 kts 265°
2026-05-08 18:42 49.01726 2.52582 361 ft 15 kts 265°
2026-05-08 18:43 49.01719 2.52437 360 ft 12 kts 269°
2026-05-08 18:43 49.01768 2.52370 358 ft 10 kts 352°
2026-05-08 18:43 49.01853 2.52359 359 ft 13 kts 355°
2026-05-08 18:43 49.01949 2.52347 354 ft 13 kts 355°
2026-05-08 18:44 49.01968 2.52344 354 ft 0 kts 355°
2026-05-08 18:46 49.01991 2.52342 361 ft 7 kts 355°
2026-05-08 18:46 49.02052 2.52334 357 ft 10 kts 355°
2026-05-08 18:46 49.02117 2.52353 360 ft 10 kts 54°
2026-05-08 18:46 49.02122 2.52399 355 ft 0 kts 85°
2026-05-08 18:47 49.02125 2.52446 356 ft 20 kts 85°
2026-05-08 18:47 49.02159 2.53057 358 ft 92 kts 85°
2026-05-08 18:47 49.02230 2.54334 364 ft 147 kts 85°
2026-05-08 18:47 49.02311 2.56054 654 ft 164 kts 84°
2026-05-08 18:48 49.02388 2.57766 1371 ft 162 kts 85°
2026-05-08 18:48 49.02485 2.59481 2038 ft 162 kts 84°
2026-05-08 18:48 49.02595 2.61175 2711 ft 159 kts 84°
2026-05-08 18:48 49.02695 2.62916 3081 ft 175 kts 84°
2026-05-08 18:49 49.02798 2.64883 3343 ft 197 kts 85°
2026-05-08 18:49 49.02912 2.67102 3596 ft 223 kts 85°
2026-05-08 18:49 49.03040 2.69573 3953 ft 246 kts 85°
2026-05-08 18:49 49.03199 2.72259 4538 ft 260 kts 81°
2026-05-08 18:50 49.03964 2.74765 5279 ft 268 kts 46°
2026-05-08 18:50 49.05539 2.76197 6013 ft 276 kts 14°
2026-05-08 18:50 49.07464 2.76424 6792 ft 281 kts 356°
2026-05-08 18:50 49.09418 2.76130 7566 ft 285 kts 351°
2026-05-08 18:51 49.11395 2.75736 8370 ft 288 kts 352°
2026-05-08 18:51 49.13397 2.75417 9199 ft 291 kts 353°
2026-05-08 18:51 49.15437 2.75210 9996 ft 295 kts 355°
2026-05-08 18:51 49.17514 2.75100 10501 ft 309 kts 356°
2026-05-08 18:52 49.19747 2.75054 10709 ft 332 kts 358°
2026-05-08 18:52 49.22107 2.75054 11164 ft 344 kts 358°
2026-05-08 18:52 49.24516 2.75079 11833 ft 348 kts 359°
2026-05-08 18:52 49.26956 2.75115 12549 ft 352 kts 359°
2026-05-08 18:53 49.29414 2.75153 13256 ft 356 kts 359°
2026-05-08 18:53 49.31906 2.75183 13962 ft 360 kts 359°
2026-05-08 18:53 49.34417 2.75205 14579 ft 362 kts 359°
2026-05-08 18:53 49.36914 2.75221 15196 ft 365 kts 359°
2026-05-08 18:54 49.39457 2.75233 15804 ft 368 kts 359°
2026-05-08 18:54 49.42028 2.75249 16398 ft 371 kts 359°
2026-05-08 18:54 49.44618 2.75270 17016 ft 373 kts 359°
2026-05-08 18:54 49.47221 2.75423 17612 ft 377 kts
2026-05-08 18:55 49.52265 2.77761 18776 ft 381 kts 18°
2026-05-08 18:55 49.54773 2.79061 19366 ft 381 kts 18°
2026-05-08 18:55 49.57283 2.80375 19943 ft 382 kts 18°
2026-05-08 18:56 49.59806 2.81701 20509 ft 383 kts 18°
2026-05-08 18:56 49.62331 2.83031 21078 ft 384 kts 17°
2026-05-08 18:56 49.64868 2.84366 21647 ft 386 kts 17°
2026-05-08 18:56 49.67413 2.85705 22214 ft 387 kts 17°
2026-05-08 18:57 49.69966 2.87050 22754 ft 388 kts 17°
2026-05-08 18:57 49.71663 2.87944 23106 ft 389 kts 17°
2026-05-08 18:57 49.75101 2.89759 23759 ft 392 kts 17°
2026-05-08 18:57 49.77648 2.91105 24158 ft 394 kts 17°
2026-05-08 18:58 49.80251 2.92476 24552 ft 396 kts 17°
2026-05-08 18:58 49.82865 2.93851 24948 ft 397 kts 16°
2026-05-08 18:58 49.85487 2.95232 25331 ft 400 kts 16°
2026-05-08 18:58 49.88130 2.96630 25709 ft 401 kts 16°
2026-05-08 18:59 49.90775 2.98035 26008 ft 403 kts 16°
2026-05-08 18:59 49.93422 2.99444 26080 ft 403 kts 17°
2026-05-08 18:59 49.96076 3.00853 26081 ft 402 kts 16°
2026-05-08 18:59 49.98724 3.02258 26082 ft 402 kts 16°
2026-05-08 19:00 50.01373 3.03664 26082 ft 402 kts 16°
2026-05-08 19:00 50.04018 3.05074 26084 ft 402 kts 17°
2026-05-08 19:00 50.06668 3.06492 26153 ft 404 kts 17°
2026-05-08 19:00 50.09298 3.07897 26512 ft 405 kts 16°
2026-05-08 19:01 50.12007 3.09343 26880 ft 407 kts 16°
2026-05-08 19:01 50.14649 3.10758 27227 ft 409 kts 16°
2026-05-08 19:01 50.17350 3.12206 27583 ft 411 kts 16°
2026-05-08 19:01 50.20062 3.13664 27911 ft 413 kts 16°
2026-05-08 19:02 50.22766 3.15145 28242 ft 415 kts 18°
2026-05-08 19:02 50.25423 3.16966 28563 ft 418 kts 21°
2026-05-08 19:02 50.28075 3.18829 28886 ft 419 kts 20°
2026-05-08 19:02 50.30742 3.20698 29196 ft 420 kts 20°
2026-05-08 19:03 50.33414 3.22569 29491 ft 422 kts 20°
2026-05-08 19:03 50.36088 3.24449 29937 ft 419 kts 21°
2026-05-08 19:03 50.38746 3.26324 30067 ft 417 kts 21°
2026-05-08 19:04 50.44001 3.30151 30309 ft 419 kts 22°
2026-05-08 19:04 50.46615 3.32196 30532 ft 420 kts 23°
2026-05-08 19:04 50.49226 3.34287 30741 ft 422 kts 23°
2026-05-08 19:04 50.51849 3.36395 30944 ft 423 kts 23°
2026-05-08 19:05 50.54460 3.38386 31187 ft 422 kts 21°
2026-05-08 19:05 50.57128 3.40289 31453 ft 421 kts 20°
2026-05-08 19:05 50.59846 3.42146 31746 ft 420 kts 19°
2026-05-08 19:05 50.62500 3.43935 32010 ft 420 kts 19°
2026-05-08 19:06 50.65147 3.45728 32271 ft 420 kts 19°
2026-05-08 19:06 50.67834 3.47574 32550 ft 420 kts 20°
2026-05-08 19:06 50.70514 3.49440 32833 ft 420 kts 20°
2026-05-08 19:06 50.73185 3.51318 33111 ft 419 kts 20°
2026-05-08 19:07 50.75831 3.53188 33394 ft 419 kts 20°
2026-05-08 19:07 50.78500 3.55076 33675 ft 419 kts 20°
2026-05-08 19:07 50.81163 3.56962 33962 ft 418 kts 20°
2026-05-08 19:07 50.83808 3.58836 34220 ft 418 kts 20°
2026-05-08 19:08 50.86453 3.60711 34423 ft 419 kts 20°
2026-05-08 19:08 50.89123 3.62597 34609 ft 420 kts 20°
2026-05-08 19:08 50.91796 3.64488 34783 ft 421 kts 20°
2026-05-08 19:08 50.94477 3.66391 34955 ft 422 kts 20°
2026-05-08 19:09 50.97155 3.68297 35110 ft 423 kts 20°
2026-05-08 19:09 50.99801 3.70181 35260 ft 424 kts 20°
2026-05-08 19:09 51.02491 3.72100 35422 ft 425 kts 20°
2026-05-08 19:09 51.05201 3.74039 35581 ft 426 kts 20°
2026-05-08 19:10 51.07903 3.75974 35744 ft 427 kts 20°
2026-05-08 19:10 51.10610 3.77915 35893 ft 427 kts 20°
2026-05-08 19:10 51.13319 3.79859 36040 ft 428 kts 20°
2026-05-08 19:10 51.16047 3.81816 36189 ft 428 kts 20°
2026-05-08 19:11 51.18763 3.83763 36328 ft 429 kts 20°
2026-05-08 19:11 51.21485 3.85713 36456 ft 430 kts 20°
2026-05-08 19:11 51.24225 3.87684 36593 ft 430 kts 21°
2026-05-08 19:11 51.26952 3.89653 36725 ft 431 kts 21°
2026-05-08 19:12 51.29685 3.91624 36864 ft 432 kts 21°
2026-05-08 19:12 51.32422 3.93598 37017 ft 432 kts 21°
2026-05-08 19:12 51.35177 3.95591 37120 ft 434 kts 21°
2026-05-08 19:13 51.40674 3.99585 37115 ft 435 kts 21°
2026-05-08 19:13 51.46144 4.03601 37098 ft 436 kts 24°
2026-05-08 19:14 51.51087 4.09346 37112 ft 444 kts 39°
2026-05-08 19:14 51.55628 4.16077 37102 ft 444 kts 39°
2026-05-08 19:15 51.60174 4.22803 37121 ft 445 kts 39°
2026-05-08 19:15 51.64725 4.29543 37120 ft 445 kts 39°
2026-05-08 19:16 51.69270 4.36304 37112 ft 445 kts 39°
2026-05-08 19:16 51.73817 4.43095 37135 ft 445 kts 39°
2026-05-08 19:17 51.78320 4.49856 37138 ft 445 kts 39°
2026-05-08 19:17 51.82843 4.56660 37136 ft 445 kts 39°
2026-05-08 19:18 51.87372 4.63485 37139 ft 445 kts 39°
2026-05-08 19:18 51.91900 4.70312 37127 ft 445 kts 39°
2026-05-08 19:19 51.96425 4.77153 37134 ft 445 kts 39°
2026-05-08 19:19 52.00907 4.83970 37121 ft 445 kts 40°
2026-05-08 19:20 52.05414 4.90854 37132 ft 445 kts 40°
2026-05-08 19:20 52.09924 4.97761 37135 ft 445 kts 40°
2026-05-08 19:21 52.14408 5.04634 37133 ft 445 kts 40°
2026-05-08 19:21 52.18919 5.11566 37142 ft 445 kts 40°
2026-05-08 19:22 52.23420 5.18506 37134 ft 445 kts 40°
2026-05-08 19:22 52.27915 5.25450 37131 ft 446 kts 40°
2026-05-08 19:23 52.32387 5.32391 37130 ft 446 kts 40°
2026-05-08 19:23 52.36743 5.39184 37137 ft 446 kts 40°
2026-05-08 19:24 52.41243 5.46202 37148 ft 446 kts 40°
2026-05-08 19:24 52.45736 5.53206 37148 ft 446 kts 40°
2026-05-08 19:25 52.50229 5.60260 37149 ft 447 kts 40°
2026-05-08 19:25 52.54682 5.67279 37139 ft 447 kts 40°
2026-05-08 19:26 52.59157 5.74341 37138 ft 447 kts 40°
2026-05-08 19:26 52.63638 5.81440 37150 ft 447 kts 40°
2026-05-08 19:27 52.68112 5.88547 37140 ft 447 kts 40°
2026-05-08 19:27 52.72581 5.95665 37142 ft 447 kts 40°
2026-05-08 19:28 52.77059 6.02818 37143 ft 448 kts 41°
2026-05-08 19:28 52.81529 6.09987 37144 ft 448 kts 41°
2026-05-08 19:29 52.85999 6.17167 37153 ft 448 kts 41°
2026-05-08 19:29 52.90440 6.24323 37152 ft 449 kts 41°
2026-05-08 19:30 52.94903 6.31542 37153 ft 448 kts 41°
2026-05-08 19:30 52.99360 6.38780 37151 ft 449 kts 41°
2026-05-08 19:31 53.03819 6.46045 37146 ft 449 kts 41°
2026-05-08 19:31 53.08275 6.53315 37169 ft 449 kts 41°
2026-05-08 19:32 53.12732 6.60611 37179 ft 449 kts 41°
2026-05-08 19:32 53.17190 6.67910 37178 ft 449 kts 40°
2026-05-08 19:33 53.21829 6.74873 37176 ft 448 kts 37°
2026-05-08 19:33 53.26557 6.81560 37166 ft 447 kts 37°
2026-05-08 19:34 53.31275 6.88335 37174 ft 448 kts 38°
2026-05-08 19:34 53.35949 6.95224 37183 ft 448 kts 38°
2026-05-08 19:35 53.40612 7.02157 37189 ft 448 kts 38°
2026-05-08 19:35 53.45274 7.09073 37167 ft 448 kts 38°
2026-05-08 19:36 53.49941 7.15997 37166 ft 448 kts 38°
2026-05-08 19:36 53.54576 7.22891 37182 ft 447 kts 38°
2026-05-08 19:37 53.59233 7.29849 37176 ft 448 kts 38°
2026-05-08 19:37 53.63888 7.36822 37175 ft 449 kts 39°
2026-05-08 19:38 53.68558 7.43850 37179 ft 450 kts 39°
2026-05-08 19:38 53.73222 7.50889 37190 ft 450 kts 39°
2026-05-08 19:39 53.77887 7.57945 37203 ft 450 kts 39°
2026-05-08 19:39 53.81763 7.63823 37207 ft 451 kts 39°
2026-05-08 19:40 53.86423 7.70918 37205 ft 450 kts 39°
2026-05-08 19:40 53.91080 7.78038 37212 ft 450 kts 39°
2026-05-08 19:41 53.95734 7.85156 37215 ft 450 kts 39°
2026-05-08 19:41 54.00385 7.92293 37237 ft 451 kts 39°
2026-05-08 19:42 54.05003 7.99404 37222 ft 451 kts 39°
2026-05-08 19:42 54.09650 8.06586 37210 ft 452 kts 39°
2026-05-08 19:43 54.14298 8.13796 37215 ft 453 kts 39°
2026-05-08 19:43 54.16514 8.17639 37213 ft 456 kts 51°
2026-05-08 19:43 54.18329 8.22071 37223 ft 457 kts 53°
2026-05-08 19:44 54.21881 8.31061 37216 ft 456 kts 54°
2026-05-08 19:44 54.25413 8.40104 37198 ft 457 kts 54°
2026-05-08 19:45 54.28916 8.49092 37209 ft 457 kts 54°
2026-05-08 19:45 54.32433 8.58139 37206 ft 457 kts 54°
2026-05-08 19:46 54.35965 8.67240 37207 ft 458 kts 54°
2026-05-08 19:46 54.41252 8.80922 37214 ft 459 kts 54°
2026-05-08 19:47 54.44762 8.90077 37229 ft 459 kts 54°
2026-05-08 19:47 54.48273 8.99251 37230 ft 459 kts 54°
2026-05-08 19:48 54.51757 9.08372 37239 ft 460 kts 54°
2026-05-08 19:48 54.55255 9.17576 37229 ft 460 kts 55°
2026-05-08 19:49 54.58744 9.26824 37227 ft 460 kts 55°
2026-05-08 19:49 54.62228 9.36082 37234 ft 460 kts 55°
2026-05-08 19:50 54.65720 9.45344 37259 ft 460 kts 55°
2026-05-08 19:50 54.69206 9.54633 36897 ft 460 kts 55°
2026-05-08 19:51 54.70939 9.59266 36643 ft 459 kts 55°
2026-05-08 19:51 54.72671 9.63913 36382 ft 459 kts 55°
2026-05-08 19:51 54.74396 9.68560 36133 ft 458 kts 55°
2026-05-08 19:51 54.76094 9.73136 35882 ft 458 kts 55°
2026-05-08 19:52 54.77814 9.77776 35532 ft 457 kts 55°
2026-05-08 19:52 54.79529 9.82409 35162 ft 457 kts 55°
2026-05-08 19:52 54.81267 9.87113 34774 ft 455 kts 55°
2026-05-08 19:52 54.82943 9.91663 34408 ft 452 kts 55°
2026-05-08 19:53 54.84620 9.96225 34002 ft 448 kts 55°
2026-05-08 19:53 54.86283 10.00762 33579 ft 444 kts 55°
2026-05-08 19:53 54.87936 10.05282 33133 ft 440 kts 55°
2026-05-08 19:53 54.89567 10.09749 32649 ft 436 kts 55°
2026-05-08 19:54 54.91179 10.14167 32172 ft 432 kts 54°
2026-05-08 19:54 54.92783 10.18561 31709 ft 428 kts 54°
2026-05-08 19:54 54.94374 10.22923 31247 ft 425 kts 54°
2026-05-08 19:54 54.95948 10.27249 30801 ft 421 kts 54°
2026-05-08 19:55 54.97503 10.31534 30364 ft 418 kts 54°
2026-05-08 19:55 54.99028 10.35749 29855 ft 414 kts 54°
2026-05-08 19:55 55.00555 10.39976 29369 ft 410 kts 54°
2026-05-08 19:55 55.02066 10.44164 29249 ft 408 kts 55°
2026-05-08 19:56 55.05084 10.52551 29276 ft 409 kts 55°
2026-05-08 19:56 55.06596 10.56763 29138 ft 409 kts 55°
2026-05-08 19:56 55.08094 10.60940 28683 ft 405 kts 56°
2026-05-08 19:57 55.09574 10.65080 28202 ft 401 kts 56°
2026-05-08 19:57 55.11051 10.69198 27744 ft 398 kts 56°
2026-05-08 19:57 55.12514 10.73274 27293 ft 396 kts 56°
2026-05-08 19:57 55.13964 10.77342 26821 ft 394 kts 56°
2026-05-08 19:58 55.15404 10.81401 26298 ft 392 kts 56°
2026-05-08 19:58 55.16835 10.85450 25737 ft 392 kts 56°
2026-05-08 19:58 55.18271 10.89511 25097 ft 394 kts 56°
2026-05-08 19:58 55.19703 10.93555 24479 ft 396 kts 57°
2026-05-08 19:59 55.21153 10.97665 23860 ft 398 kts 57°
2026-05-08 19:59 55.22606 11.01799 23133 ft 400 kts 57°
2026-05-08 19:59 55.24063 11.05941 22420 ft 402 kts 57°
2026-05-08 19:59 55.25534 11.10123 21715 ft 403 kts 57°
2026-05-08 20:00 55.27002 11.14306 21247 ft 398 kts 57°
2026-05-08 20:00 55.28423 11.18375 21128 ft 385 kts 57°
2026-05-08 20:00 55.29798 11.22319 20984 ft 373 kts 57°
2026-05-08 20:00 55.31127 11.26135 20838 ft 361 kts 57°
2026-05-08 20:01 55.32427 11.29868 20516 ft 356 kts 57°
2026-05-08 20:01 55.33710 11.33557 20108 ft 351 kts 57°
2026-05-08 20:01 55.34972 11.37187 19406 ft 347 kts 57°
2026-05-08 20:01 55.36225 11.40784 18708 ft 343 kts 57°
2026-05-08 20:02 55.37465 11.44352 17959 ft 340 kts 58°
2026-05-08 20:02 55.38684 11.47875 17194 ft 336 kts 58°
2026-05-08 20:02 55.39875 11.51327 16493 ft 332 kts 58°
2026-05-08 20:02 55.41067 11.54789 15776 ft 329 kts 58°
2026-05-08 20:03 55.42250 11.58236 15326 ft 328 kts 59°
2026-05-08 20:03 55.43415 11.61630 15163 ft 318 kts 59°
2026-05-08 20:03 55.44558 11.64896 14692 ft 309 kts 57°
2026-05-08 20:03 55.45737 11.68026 14137 ft 305 kts 56°
2026-05-08 20:04 55.46938 11.71090 13484 ft 302 kts 56°
2026-05-08 20:04 55.48132 11.74099 12854 ft 298 kts 56°
2026-05-08 20:04 55.49312 11.77078 12255 ft 294 kts 56°
2026-05-08 20:04 55.50468 11.80019 11627 ft 290 kts 56°
2026-05-08 20:05 55.51613 11.82961 11206 ft 290 kts 57°
2026-05-08 20:05 55.52742 11.85878 10873 ft 287 kts 57°
2026-05-08 20:05 55.53865 11.88796 10534 ft 286 kts 57°
2026-05-08 20:05 55.54974 11.91693 10194 ft 283 kts 57°
2026-05-08 20:06 55.56073 11.94568 9806 ft 282 kts 58°
2026-05-08 20:06 55.56825 11.97699 9435 ft 276 kts 83°
2026-05-08 20:06 55.56696 12.00966 9062 ft 270 kts 110°
2026-05-08 20:06 55.55801 12.03905 8657 ft 268 kts 124°
2026-05-08 20:07 55.54741 12.06608 8257 ft 267 kts 125°
2026-05-08 20:07 55.53686 12.09228 7896 ft 264 kts 125°
2026-05-08 20:07 55.52622 12.11854 7529 ft 262 kts 125°
2026-05-08 20:07 55.51564 12.14453 7161 ft 259 kts 125°
2026-05-08 20:08 55.50514 12.17023 6795 ft 257 kts 125°
2026-05-08 20:08 55.49471 12.19570 6382 ft 253 kts 125°
2026-05-08 20:08 55.48448 12.22064 5700 ft 250 kts 125°
2026-05-08 20:08 55.47432 12.24529 5034 ft 247 kts 125°
2026-05-08 20:09 55.46421 12.26965 4375 ft 247 kts 125°
2026-05-08 20:09 55.45408 12.29386 3986 ft 244 kts 125°
2026-05-08 20:09 55.44399 12.31790 3569 ft 243 kts 125°
2026-05-08 20:09 55.43496 12.34260 3169 ft 239 kts 110°
2026-05-08 20:10 55.43363 12.37118 3004 ft 238 kts 78°
2026-05-08 20:10 55.44252 12.39580 3010 ft 248 kts 40°
2026-05-08 20:10 55.45844 12.40702 3010 ft 257 kts 15°
2026-05-08 20:10 55.47551 12.41671 3005 ft 251 kts 38°
2026-05-08 20:11 55.48716 12.43816 2826 ft 245 kts 56°
2026-05-08 20:11 55.49872 12.46029 2520 ft 246 kts 46°
2026-05-08 20:11 55.51162 12.47991 2192 ft 243 kts 44°
2026-05-08 20:11 55.52427 12.49896 1858 ft 234 kts 45°
2026-05-08 20:12 55.53609 12.51703 1533 ft 217 kts 45°
2026-05-08 20:12 55.54709 12.53391 1253 ft 203 kts 45°
2026-05-08 20:12 55.55730 12.54965 1015 ft 187 kts 45°
2026-05-08 20:12 55.56675 12.56423 733 ft 175 kts 44°
2026-05-08 20:13 55.57543 12.57751 566 ft 155 kts 44°
2026-05-08 20:13 55.58336 12.58967 293 ft 147 kts 45°
2026-05-08 20:13 55.59083 12.60130 112 ft 140 kts 45°
2026-05-08 20:13 55.59805 12.61250 27 ft 130 kts 45°
2026-05-08 20:14 55.60369 12.62138 23 ft 84 kts 41°
2026-05-08 20:14 55.60690 12.62622 29 ft 42 kts 41°
2026-05-08 20:14 55.60871 12.62827 25 ft 29 kts 15°
2026-05-08 20:14 55.61038 12.62894 24 ft 17 kts 12°
2026-05-08 20:15 55.61145 12.62944 26 ft 15 kts 32°
2026-05-08 20:15 55.61223 12.63063 25 ft 15 kts 41°
2026-05-08 20:15 55.61305 12.63188 24 ft 16 kts 41°
2026-05-08 20:15 55.61392 12.63323 24 ft 18 kts 41°
2026-05-08 20:16 55.61489 12.63472 24 ft 19 kts 41°
2026-05-08 20:16 55.61595 12.63639 24 ft 21 kts 42°
2026-05-08 20:16 55.61710 12.63823 25 ft 23 kts 42°
2026-05-08 20:16 55.61813 12.63980 24 ft 12 kts 41°
2026-05-08 20:17 55.61868 12.64063 24 ft 9 kts 40°
2026-05-08 20:17 55.61918 12.64113 26 ft 8 kts 26°
2026-05-08 20:17 55.61964 12.64150 26 ft 7 kts 24°
2026-05-08 20:17 55.62004 12.64182 24 ft 6 kts 24°
2026-05-08 20:18 55.62042 12.64212 24 ft 7 kts 24°
2026-05-08 20:18 55.62104 12.64263 24 ft 13 kts 25°
2026-05-08 20:18 55.62182 12.64330 23 ft 12 kts 26°
2026-05-08 20:18 55.62259 12.64344 22 ft 11 kts 319°
2026-05-08 20:19 55.62300 12.64235 21 ft 11 kts 302°
2026-05-08 20:19 55.62350 12.64097 21 ft 14 kts 302°
2026-05-08 20:19 55.62399 12.63963 21 ft 12 kts 303°
2026-05-08 20:19 55.62445 12.63845 24 ft 11 kts 313°
2026-05-08 20:20 55.62504 12.63789 23 ft 8 kts 339°
2026-05-08 20:20 55.62552 12.63767 24 ft 6 kts 354°
2026-05-08 20:20 55.62593 12.63773 26 ft 7 kts 11°
2026-05-08 20:20 55.62657 12.63819 25 ft 10 kts 32°
2026-05-08 20:21 55.62714 12.63885 24 ft 9 kts 33°
2026-05-08 20:21 55.62763 12.63940 25 ft 8 kts 33°
2026-05-08 20:21 55.62809 12.63974 24 ft 7 kts 11°
2026-05-08 20:21 55.62851 12.63989 24 ft 6 kts 11°
2026-05-08 20:22 55.62875 12.63997 24 ft 2 kts 11°
2026-05-08 20:22 55.62885 12.64000 24 ft 0 kts 11°